Voltar ao catálogo

COSMOS 192

AtivoMilitarLEO
NORAD 3047·PAYLOAD·🇷🇺 Russia

Lançado Nov 23, 1967 de Plesetsk Cosmodrome

Loading…

Próximas Passagens (próximas 24 horas)

TLE

AtualizadoSource: Space-Track

Época: Sep 14, 2026, 13:40 UTC

1 03047U 67116A   26257.56967574  .00000204  00000-0  51156-4 0  9994
2 03047  74.0119 205.4997 0008509 341.4633  18.6220 14.57623018111650

Acompanhe COSMOS 192 em tempo real com AllMySat

Download on the App Store